Time,TemperatureF,DewpointF,PressureIn,WindDirection,WindDirectionDegrees,WindSpeedMPH,WindSpeedGustMPH,Humidity,HourlyPrecipIn,Conditions,Clouds,dailyrainin,SoftwareType,DateUTC
2013-03-28 00:00:00,34.0,-99.9,-100.00,North,-999,-999.0,-999.0,-999,-99.99,,,0.01,,2013-03-28 07:00:00,
2013-03-28 00:52:00,34.0,-99.9,-100.00,North,-999,-999.0,-999.0,-999,-99.99,,,0.01,,2013-03-28 07:52:00,
2013-03-28 01:00:00,35.0,-99.9,-100.00,North,-999,-999.0,-999.0,-999,-99.99,,,0.01,,2013-03-28 08:00:00,
2013-03-28 02:00:00,35.0,-99.9,-100.00,North,-999,-999.0,-999.0,-999,-99.99,,,0.01,,2013-03-28 09:00:00,
2013-03-28 02:53:00,35.0,-99.9,-100.00,North,-999,-999.0,-999.0,-999,-99.99,,,0.01,,2013-03-28 09:53:00,
2013-03-28 03:00:00,35.0,-99.9,-100.00,North,-999,-999.0,-999.0,-999,-99.99,,,0.00,,2013-03-28 10:00:00,
2013-03-28 04:00:00,35.0,-99.9,-100.00,North,-999,-999.0,-999.0,-999,-99.99,,,0.00,,2013-03-28 11:00:00,
2013-03-28 05:00:00,35.0,-99.9,-100.00,North,-999,-999.0,-999.0,-999,-99.99,,,0.01,,2013-03-28 12:00:00,
2013-03-28 06:00:00,34.0,-99.9,-100.00,North,-999,-999.0,-999.0,-999,-99.99,,,0.01,,2013-03-28 13:00:00,
2013-03-28 07:00:00,35.0,-99.9,-100.00,North,-999,-999.0,-999.0,-999,-99.99,,,0.01,,2013-03-28 14:00:00,
2013-03-28 08:00:00,35.0,-99.9,-100.00,North,-999,-999.0,-999.0,-999,-99.99,,,0.01,,2013-03-28 15:00:00,
2013-03-28 09:00:00,38.0,-99.9,-100.00,North,-999,-999.0,-999.0,-999,-99.99,,,-99.99,,2013-03-28 16:00:00,
2013-03-28 10:00:00,41.0,-99.9,-100.00,North,-999,-999.0,-999.0,-999,-99.99,,,0.00,,2013-03-28 17:00:00,
2013-03-28 11:00:00,42.0,-99.9,-100.00,North,-999,-999.0,-999.0,-999,-99.99,,,0.00,,2013-03-28 18:00:00,
2013-03-28 11:53:00,42.0,-99.9,-100.00,North,-999,-999.0,-999.0,-999,-99.99,,,0.00,,2013-03-28 18:53:00,
2013-03-28 12:00:00,45.0,-99.9,-100.00,North,-999,-999.0,-999.0,-999,-99.99,,,0.00,,2013-03-28 19:00:00,
2013-03-28 13:00:00,45.0,-99.9,-100.00,North,-999,-999.0,-999.0,-999,-99.99,,,0.00,,2013-03-28 20:00:00,
2013-03-28 14:00:00,46.0,-99.9,-100.00,North,-999,-999.0,-999.0,-999,-99.99,,,0.00,,2013-03-28 21:00:00,
2013-03-28 15:00:00,43.0,-99.9,-100.00,North,-999,-999.0,-999.0,-999,-99.99,,,0.00,,2013-03-28 22:00:00,
2013-03-28 16:00:00,45.0,-99.9,-100.00,North,-999,-999.0,-999.0,-999,-99.99,,,0.00,,2013-03-28 23:00:00,
2013-03-28 17:00:00,44.0,-99.9,-100.00,North,-999,-999.0,-999.0,-999,-99.99,,,0.00,,2013-03-29 00:00:00,
2013-03-28 18:00:00,43.0,-99.9,-100.00,North,-999,-999.0,-999.0,-999,-99.99,,,0.00,,2013-03-29 01:00:00,
2013-03-28 19:00:00,40.0,-99.9,-100.00,North,-999,-999.0,-999.0,-999,-99.99,,,0.00,,2013-03-29 02:00:00,
2013-03-28 20:00:00,36.0,-99.9,-100.00,North,-999,-999.0,-999.0,-999,-99.99,,,-99.99,,2013-03-29 03:00:00,
2013-03-28 21:00:00,35.0,-99.9,-100.00,North,-999,-999.0,-999.0,-999,-99.99,,,-99.99,,2013-03-29 04:00:00,
2013-03-28 22:00:00,34.0,-99.9,-100.00,North,-999,-999.0,-999.0,-999,-99.99,,,0.00,,2013-03-29 05:00:00,
2013-03-28 23:00:00,34.0,-99.9,-100.00,North,-999,-999.0,-999.0,-999,-99.99,,,0.00,,2013-03-29 06:00:00,